Change the Weather History Date:

Tuesday, August 27, 2013

  Actual Average Record
Temperature  
Mean Temperature 77 °F -  
Max Temperature 89 °F 84 °F 96 °F (1998)
Min Temperature 66 °F 67 °F 64 °F (2002)
Cooling Degree Days 12    
Growing Degree Days 27 (Base 50)    
Moisture  
Dew Point 63 °F    
Average Humidity 65    
Maximum Humidity 90    
Minimum Humidity 37    
Precipitation  
Precipitation 0.00 in - - ()
Sea Level Pressure  
Sea Level Pressure 30.09 in    
Wind  
Wind Speed 4 mph (WNW)    
Max Wind Speed 10 mph    
Max Gust Speed -    
Visibility 10 miles    
Events      
Averages and records for this station are not official NWS values.
T = Trace of Precipitation, MM = Missing Value Source: NWS Daily Summary

Daily Weather History Graph

Daily Weather History Graph

Search for Another Location

Airport or City:

Trip Planner

Search our weather history database for the weather conditions in past years. The results will help you decide how hot, cold, wet, or windy it might be!

Date:

Astronomy

Aug. 27, 2013 Rise Set
Actual Time 6:58 AM EDT 8:02 PM EDT
Civil Twilight 6:32 AM EDT 8:28 PM EDT
Nautical Twilight 6:01 AM EDT 8:59 PM EDT
Astronomical Twilight 5:29 AM EDT 9:30 PM EDT
Moon No Moon Rise 1:38 PM EDT (8/27)
Length of Visible Light 13h 55m
Length of Day
13h 03m
Waning Gibbous, 57% of the Moon is Illuminated
Aug 27
Waning Gibbous
Aug 28
Last Quarter
Sep 5
New
Sep 12
First Quarter
Sep 19
Full

Hourly Weather History & Observations

Time (EDT) Temp. Heat Index Dew Point Humidity Pressure Visibility Wind Dir Wind Speed Gust Speed Precip Events Conditions
12:53 AM 69.1 °F - 63.0 °F 81% 30.17 in 10.0 mi WSW 4.6 mph - N/A   Clear
1:53 AM 68.0 °F - 63.0 °F 84% 30.16 in 10.0 mi West 3.5 mph - N/A   Clear
2:53 AM 66.9 °F - 63.0 °F 87% 30.14 in 10.0 mi West 3.5 mph - N/A   Clear
3:53 AM 66.9 °F - 62.1 °F 84% 30.13 in 10.0 mi West 4.6 mph - N/A   Clear
4:53 AM 66.0 °F - 63.0 °F 90% 30.12 in 10.0 mi West 3.5 mph - N/A   Clear
5:53 AM 66.9 °F - 63.0 °F 87% 30.11 in 10.0 mi WNW 3.5 mph - N/A   Clear
6:53 AM 66.9 °F - 62.1 °F 84% 30.12 in 10.0 mi WNW 3.5 mph - N/A   Clear
7:53 AM 69.1 °F - 63.0 °F 81% 30.12 in 10.0 mi WNW 3.5 mph - N/A   Clear
8:53 AM 72.0 °F - 63.0 °F 73% 30.12 in 10.0 mi WNW 4.6 mph - N/A   Clear
9:53 AM 77.0 °F - 64.0 °F 64% 30.11 in 10.0 mi WNW 4.6 mph - N/A   Clear
10:53 AM 81.0 °F 82.7 °F 64.9 °F 58% 30.11 in 10.0 mi NNW 6.9 mph - N/A   Clear
11:53 AM 82.9 °F 84.4 °F 64.0 °F 53% 30.10 in 10.0 mi NNE 10.4 mph - N/A   Clear
12:53 PM 84.9 °F 85.0 °F 61.0 °F 44% 30.09 in 10.0 mi NNW 4.6 mph - N/A   Clear
1:53 PM 87.1 °F 87.5 °F 62.1 °F 43% 30.08 in 10.0 mi Variable 3.5 mph - N/A   Clear
2:53 PM 87.1 °F 86.5 °F 59.0 °F 39% 30.06 in 10.0 mi Calm Calm - N/A   Partly Cloudy
3:53 PM 88.0 °F 87.1 °F 59.0 °F 37% 30.04 in 10.0 mi WNW 3.5 mph - N/A   Partly Cloudy
4:53 PM 88.0 °F 88.4 °F 62.1 °F 42% 30.03 in 10.0 mi Calm Calm - N/A   Overcast
5:53 PM 86.0 °F 86.3 °F 62.1 °F 44% 30.03 in 10.0 mi South 4.6 mph - N/A   Mostly Cloudy
6:53 PM 84.9 °F 86.1 °F 64.0 °F 49% 30.03 in 10.0 mi WSW 6.9 mph - N/A   Mostly Cloudy
7:53 PM 81.0 °F 83.0 °F 66.0 °F 60% 30.03 in 10.0 mi WSW 8.1 mph - N/A   Clear
8:53 PM 79.0 °F - 66.0 °F 64% 30.04 in 10.0 mi WSW 6.9 mph - N/A   Clear
9:53 PM 78.1 °F - 66.0 °F 66% 30.04 in 10.0 mi West 3.5 mph - N/A   Clear
10:53 PM 77.0 °F - 66.9 °F 71% 30.05 in 10.0 mi WNW 5.8 mph - N/A   Clear
11:53 PM 75.9 °F - 66.0 °F 71% 30.05 in 10.0 mi WNW 4.6 mph - N/A   Clear